Weather in Bogorodskoe

Russia / Khabarovsk Krai     52°22′02″N   140°26′13″E
temp.,
°C
wind,
m/s
gust,
m/s
humid.,
%
clouds,
%
prec.,
mm/h
press.,
hPa
HPBL,
m
13 may, thu
thu1301:00+2e238360 0.0 101367
04:00+1ese2394100 0.0 101287
07:00+4se2581100 0.0 1012410
10:00+7se3571100 0.0 1011734
13:00+7se3471100 0.0 1009743
16:00+8se456949 0.0 1009755
19:00+5se368394 0.0 1009581
22:00+4ese249099 0.0 1010326
14 may, fri
fri1401:00+4e1292100 0.0 1009172
04:00+4e129597 0.0 1009112
07:00+5ese129099 0.0 1010214
10:00+8s1178100 0.0 1010504
13:00+10ssw117073 0.0 1011697
16:00+13ssw115996 0.0 10101196
19:00+10sse237298 0.0 101274
22:00+6ese21935 0.0 101317
15 may, sat
sat1501:00+4ese11944 0.0 101315
04:00+4e2294100 0.0 101135
07:00+7ese2684100 0.0 1008215
10:00+9se41274100 0.0 1006711
13:00+10se61666100 0.1 1002892
16:00+7se82184100 3.4 9971389
19:00+5se41191100 6.1 994536
22:00+5se259728 6.2 995191
16 may, sun
sun1601:00+3se2398100 0.1 99383
04:00+4s159998 2.5 993229
07:00+5sw3796100 0.4 993864
10:00+2nw2496100 1.7 996364
13:00+5w477896 0.3 9971032
16:00+5nw597496 0.6 9981097
19:00+3nw398199 0.1 1001858
22:00+2wnw398394 0.1 1002818
17 may, mon
mon1701:00+1wnw288695 0.0 1002668
04:000wnw249193 0.0 1003243
07:00+1w257965 0.0 1004506
10:00+7nw485934 0.0 10031042
13:00+10nw475295 0.0 10021551
16:00+12nw364658 0.0 10011653
19:00+11ne11555 0.0 100047
22:00+5e228065 0.0 100142